Regional Weather Roundup
Issued by NWS Newport/Morehead, NC

Current Version | Previous Version | Graphics & Text | Print | Product List | Glossary Off
Versions: 1 2 3 4 5 6 7 8 9 10 11 12 13 14 15 16 17 18 19 20 21 22 23 24 25 26 27 28 29 30 31 32 33 34 35 36 37 38 39 40 41 42 43 44 45 46 47 48 49 50

266
ASUS42 KMHX 201513
RWRMHX
WEATHER ROUNDUP FOR EASTERN NORTH CAROLINA
NATIONAL WEATHER SERVICE NEWPORT/MOREHEAD CITY NC
1100 AM EDT FRI OCT 20 2017

NOTE: "FAIR" INDICATES FEW OR NO CLOUDS BELOW 12,000 FEET
WITH NO SIGNIFICANT WEATHER AND/OR OBSTRUCTIONS TO VISIBILITY

NCZ015>017-031-032-045>047-102-103-201600-
NORTH COAST

CITY           SKY/WX    TMP DP  RH WIND       PRES   REMARKS
EDENTON        SUNNY     69  55  61 CALM      30.25S
ELIZABETH CITY SUNNY     69  56  62 N7        30.25S
KITTY HAWK     SUNNY     67  61  80 CALM      30.23S
MANTEO         SUNNY    N/A N/A N/A N6        30.24F

$$

NCZ045>047-081-094-103-104-201600-
CENTRAL COAST

CITY           SKY/WX    TMP DP  RH WIND       PRES   REMARKS
FRISCO         SUNNY     73  61  65 NW5       30.24F

$$

NCZ095-097-098-100-101-201600-
SOUTHERN COAST

CITY           SKY/WX    TMP DP  RH WIND       PRES   REMARKS
BEAUFORT       SUNNY     71  57  61 NW6       30.25F
CEDAR ISLAND   NOT AVBL
JACKSONVILLE   SUNNY     71  58  63 W5        30.26S
PINEY ISLAND     N/A    N/A N/A N/A W8        30.25S
WILMINGTON     SUNNY     73  56  54 CALM      30.27S


$$

NCZ011>013-027>030-043-044-078>080-089-090>093-098-201600-
COASTAL PLAIN

CITY           SKY/WX    TMP DP  RH WIND       PRES   REMARKS
AHOSKIE        HAZE      65  51  60 NE5       30.26S VSB 1/4
CLINTON        SUNNY     68  52  56 NW3       30.27F
ELIZABETHTOWN  NOT AVBL
GOLDSBORO      SUNNY     68  51  52 N5        30.25S
GREENVILLE     SUNNY     64  50  59 CALM      30.26S
HAVELOCK       SUNNY     72  54  53 W5        30.27S
KENANSVILLE    SUNNY     70  50  49 NW5       30.27S
KINSTON        SUNNY     68  52  56 NW3       30.26F
NEW BERN       SUNNY     71  53  52 SW5       30.27S
RICHLANDS      SUNNY     72  50  45 CALM      30.27S
ROCKY MOUNT    SUNNY     67  53  61 N5        30.27S
WASHINGTON     SUNNY     67  51  57 CALM      30.26F
WHITEVILLE     SUNNY     68  49  50 CALM      30.28S

$$

AMZ130-135-150-152-154-156-158-170-250-252-270-ANZ085-086-088-633-658-670-201600-
MARINE OBSERVATIONS

STATION/POSITION TIME  TEMP    WIND        PRES    WAVE   SWELL
                       AIR SEA DIR/SP/G            HT/PER HT/PER
                 (UTC) (F)     (DEG/KT/KT) (MB)    (FT/S) (FT/S)
CHESAPEAKE LIGHT NOT AVBL
64 E VA BEACH    1350   67 68  280/ 10/ 14 1023.7    3/ 9   3/ 9
DUCK             1418   66 69  300/  5/  7 1023.5
2 E DUCK         1400      69                N/A     2/ 9
OREGON INLET     1412   68 68  270/  4/  6 1023.9
13E OREGON INLT  1418      71                N/A     3/ 8   3/ 8
HATTERAS CG      1418   68 69  330/  7/  8 1024.0
DIAMOND BUOY     1350   71 81  340/  8/ 12 1023.9    3/ 8   3/ 8
CAPE LOOKOUT     1400   68     320/  7/  9 1024.2
BEAUFORT LAB     1418   67 71  340/  5/  6 1024.7
30 SE NEW RVR IN 1408   73     350/  8/ 12 1024.4
30 SE NEW RVR IN NOT AVBL
27 SE WRIGHTSVLE 1408   72 75  350/ 10/ 14 1024.5
5 SE WRIGHTSVLE  1408   69 74  360/ 10/ 12 1024.7
225 S CAPE HAT   1350   77 80   30/ 16/ 17 1021.9    6/ 8   3/ 8
41 SE CHARLESTON 1420   75 80   30/ 12/ 16 1024.0

$$




USA.gov is the U.S. government's official web portal to all federal, state and local government web resources and services.